Location: Newark
(57.7279°N, 5.6916°W)
Time: 01:58:42
(UTC+00:00)

N. Korean satellite - Pass Details

Date: 14 December 2019
Orbit: 454 x 507 km, 97.2° (Epoch: 25 January)

Event Time Altitude Azimuth Distance (km) Brightness Sun altitude
Rises 07:56:12 0° 6° (N) 2,561 10.0 -7.3°
Reaches altitude 10° 07:58:45 10° 347° (NNW) 1,665 8.9 -7.0°
Maximum altitude 08:01:12 18° 303° (WNW) 1,240 8.0 -6.8°
Drops below altitude 10° 08:03:38 10° 259° (W) 1,636 8.8 -6.5°
Sets 08:06:07 0° 240° (WSW) 2,498 9.9 -6.2°
